Weather History for KUNV - July, 2013

Change the Weather History Date:

Saturday, July 13, 2013

  Actual Average Record
Temperature  
Mean Temperature 71 °F -  
Max Temperature 78 °F 81 °F 94 °F (1927)
Min Temperature 64 °F 60 °F 49 °F (1974)
Cooling Degree Days 6    
Growing Degree Days 21 (Base 50)    
Moisture  
Dew Point 66 °F    
Average Humidity 90    
Maximum Humidity 100    
Minimum Humidity 65    
Precipitation  
Precipitation 0.01 in - - ()
Sea Level Pressure  
Sea Level Pressure 30.20 in    
Wind  
Wind Speed 2 mph (NE)    
Max Wind Speed 9 mph    
Max Gust Speed -    
Visibility 9 miles    
Events Rain    
Averages and records for this station are not official NWS values.
T = Trace of Precipitation, MM = Missing Value Source: NWS Daily Summary

Daily Weather History Graph

Daily Weather History Graph

Search for Another Location

Airport or City:

Trip Planner

Search our weather history database for the weather conditions in past years. The results will help you decide how hot, cold, wet, or windy it might be!

Date:

Astronomy

Jul. 13, 2013 Rise Set
Actual Time 5:51 AM EDT 8:42 PM EDT
Civil Twilight 5:18 AM EDT 9:15 PM EDT
Nautical Twilight 4:37 AM EDT 9:56 PM EDT
Astronomical Twilight 3:50 AM EDT 10:43 PM EDT
Moon 11:07 AM EDT (7/13) 11:19 PM EDT (7/13)
Length of Visible Light 15h 56m
Length of Day
14h 51m
Waxing Crescent, 25% of the Moon is Illuminated
Jul 13
Waxing Crescent
Jul 15
First Quarter
Jul 22
Full
Jul 29
Last Quarter
Aug 6
New

Hourly Weather History & Observations

Time (EDT) Temp. Dew Point Humidity Pressure Visibility Wind Dir Wind Speed Gust Speed Precip Events Conditions
12:15 AM 65.5 °F 64.0 °F 95% 30.15 in 10.0 mi Calm Calm - 0.01 in   Overcast
12:35 AM 66.0 °F 64.4 °F 94% 30.15 in 10.0 mi Calm Calm - 0.01 in Rain Light Rain
12:55 AM 65.7 °F 64.4 °F 96% 30.15 in 10.0 mi Calm Calm - N/A   Light Drizzle
1:15 AM 65.7 °F 64.4 °F 96% 30.14 in 10.0 mi North 4.6 mph - N/A   Overcast
1:35 AM 65.8 °F 64.4 °F 95% 30.15 in 10.0 mi NNE 4.6 mph - N/A   Overcast
1:55 AM 65.8 °F 64.0 °F 94% 30.14 in 10.0 mi NNE 5.8 mph - N/A   Mostly Cloudy
2:15 AM 65.5 °F 63.9 °F 94% 30.14 in 10.0 mi ENE 3.5 mph - N/A   Mostly Cloudy
2:35 AM 65.1 °F 64.0 °F 96% 30.14 in 10.0 mi NE 3.5 mph - N/A   Overcast
2:55 AM 65.1 °F 63.9 °F 96% 30.13 in 10.0 mi NE 4.6 mph - N/A   Overcast
3:15 AM 64.9 °F 63.9 °F 96% 30.13 in 10.0 mi NE 3.5 mph - N/A   Overcast
3:35 AM 65.3 °F 64.0 °F 96% 30.13 in 10.0 mi NNE 3.5 mph - N/A   Overcast
3:55 AM 64.9 °F 63.9 °F 96% 30.14 in 7.0 mi Calm Calm - N/A Rain Rain
4:15 AM 65.3 °F 64.2 °F 96% 30.14 in 10.0 mi NE 4.6 mph - N/A   Light Drizzle
4:35 AM 65.3 °F 64.0 °F 96% 30.15 in 10.0 mi Calm Calm - 0.01 in   Overcast
4:55 AM 65.3 °F 63.9 °F 95% 30.14 in 10.0 mi NE 3.5 mph - N/A   Overcast
5:15 AM 65.5 °F 63.9 °F 94% 30.15 in 10.0 mi NNE 5.8 mph - N/A   Overcast
5:35 AM 65.5 °F 63.9 °F 94% 30.15 in 10.0 mi NE 4.6 mph - N/A   Overcast
5:53 AM 64.4 °F 64.4 °F 100% 30.14 in 5.0 mi NE 5.8 mph - N/A   Overcast
6:53 AM 64.4 °F 64.4 °F 100% 30.15 in 4.0 mi NE 5.8 mph - N/A   Overcast
7:53 AM 66.2 °F 64.4 °F 94% 30.16 in 5.0 mi NE 9.2 mph - N/A   Overcast
8:53 AM 66.2 °F 66.2 °F 100% 30.21 in 2.0 mi NE 6.9 mph - N/A   Overcast
9:53 AM 66.2 °F 66.2 °F 100% 30.21 in 4.0 mi NNE 5.8 mph - N/A   Overcast
10:53 AM 68.0 °F 66.2 °F 94% 30.22 in 4.0 mi Variable 5.8 mph - N/A   Overcast
11:53 AM 69.8 °F 68.0 °F 94% 30.22 in 5.0 mi Calm Calm - N/A   Overcast
12:53 PM 73.4 °F 68.0 °F 83% 30.23 in 10.0 mi Calm Calm - N/A   Overcast
1:53 PM 71.6 °F 68.0 °F 88% 30.24 in 7.0 mi Calm Calm - N/A Rain Light Rain
3:53 PM 77.0 °F 68.0 °F 74% 30.23 in 10.0 mi Calm Calm - N/A   Mostly Cloudy
4:53 PM 78.8 °F 68.0 °F 69% - 10.0 mi Calm Calm - N/A   Mostly Cloudy
5:53 PM 78.8 °F 66.2 °F 65% 30.24 in 10.0 mi Calm Calm - N/A   Mostly Cloudy
6:53 PM 77.0 °F 66.2 °F 69% 30.25 in 10.0 mi Calm Calm - N/A   Mostly Cloudy
7:53 PM 75.2 °F 69.8 °F 83% 30.27 in 10.0 mi ESE 3.5 mph - N/A   Mostly Cloudy
8:58 PM 75.2 °F 68.0 °F 78% 30.27 in 10.0 mi Calm Calm - N/A   Scattered Clouds
9:35 PM 73.2 °F 68.0 °F 84% 30.28 in 7.0 mi ESE 3.5 mph - N/A   Clear
9:55 PM 73.9 °F 67.8 °F 81% 30.28 in 10.0 mi Calm Calm - N/A   Clear
10:15 PM 72.1 °F 67.3 °F 85% 30.29 in 10.0 mi Calm Calm - N/A   Clear
10:35 PM 72.0 °F 68.2 °F 88% 30.30 in 10.0 mi Calm Calm - N/A   Clear
10:55 PM 72.0 °F 68.4 °F 88% 30.30 in 10.0 mi Calm Calm - N/A   Scattered Clouds
11:15 PM 71.1 °F 67.8 °F 89% 30.30 in 10.0 mi Calm Calm - N/A   Scattered Clouds
11:35 PM 70.3 °F 67.8 °F 92% 30.30 in 10.0 mi Calm Calm - N/A   Scattered Clouds
11:55 PM 71.1 °F 68.4 °F 91% 30.31 in 10.0 mi WSW 3.5 mph - N/A   Clear